Change the Weather History Date:

Tuesday, April 9, 2013

  Actual Average Record
Temperature  
Mean Temperature 74 °F -  
Max Temperature 79 °F 74 °F 85 °F (1977)
Min Temperature 69 °F 57 °F 41 °F (1972)
Cooling Degree Days 9    
Growing Degree Days 24 (Base 50)    
Moisture  
Dew Point 69 °F    
Average Humidity 86    
Maximum Humidity 94    
Minimum Humidity 70    
Precipitation  
Precipitation 0.00 in - - ()
Sea Level Pressure  
Sea Level Pressure 30.03 in    
Wind  
Wind Speed 12 mph (SE)    
Max Wind Speed 17 mph    
Max Gust Speed 25 mph    
Visibility 10 miles    
Events      
Averages and records for this station are not official NWS values.
T = Trace of Precipitation, MM = Missing Value Source: NWS Daily Summary

Daily Weather History Graph

Daily Weather History Graph

Search for Another Location

Airport or City:

Trip Planner

Search our weather history database for the weather conditions in past years. The results will help you decide how hot, cold, wet, or windy it might be!

Date:

Astronomy

Apr. 09, 2013 Rise Set
Actual Time 6:35 AM CDT 7:19 PM CDT
Civil Twilight 6:10 AM CDT 7:44 PM CDT
Nautical Twilight 5:41 AM CDT 8:13 PM CDT
Astronomical Twilight 5:12 AM CDT 8:42 PM CDT
Moon 5:55 AM CDT (4/9) 6:54 PM CDT (4/9)
Length of Visible Light 13h 33m
Length of Day
12h 44m
Waning Crescent, 1% of the Moon is Illuminated
Apr 9
Waning Crescent
Apr 10
New
Apr 18
First Quarter
Apr 25
Full
May 2
Last Quarter

Hourly Weather History & Observations

Time (CDT) Temp. Dew Point Humidity Pressure Visibility Wind Dir Wind Speed Gust Speed Precip Events Conditions
12:58 AM 70.9 °F 68.4 °F 92% 30.00 in 10.0 mi SE 13.8 mph - N/A   Clear
1:58 AM 71.1 °F 68.4 °F 91% 29.99 in 10.0 mi SE 15.0 mph - N/A   Mostly Cloudy
2:58 AM 70.5 °F 68.2 °F 92% 29.97 in 10.0 mi SE 11.5 mph - N/A   Clear
3:58 AM 70.3 °F 68.2 °F 93% 29.96 in 10.0 mi SE 11.5 mph - N/A   Clear
4:58 AM 70.5 °F 68.4 °F 93% 29.98 in 10.0 mi SE 10.4 mph - N/A   Partly Cloudy
5:58 AM 70.5 °F 68.2 °F 92% 29.99 in 10.0 mi SE 9.2 mph - N/A   Mostly Cloudy
6:33 AM 69.8 °F 68.0 °F 94% 29.99 in 10.0 mi SE 10.4 mph - N/A   Mostly Cloudy
6:43 AM 69.8 °F 68.0 °F 94% 29.99 in 10.0 mi SE 9.2 mph - N/A   Mostly Cloudy
6:58 AM 70.9 °F 68.5 °F 92% 30.00 in 10.0 mi SE 10.4 mph - N/A   Overcast
7:28 AM 71.6 °F 69.8 °F 94% 30.00 in 10.0 mi SE 12.7 mph - N/A   Mostly Cloudy
7:58 AM 72.0 °F 69.3 °F 91% 30.02 in 10.0 mi SE 11.5 mph - N/A   Partly Cloudy
8:58 AM 73.2 °F 69.4 °F 88% 30.04 in 10.0 mi SE 9.2 mph - N/A   Partly Cloudy
9:58 AM 75.7 °F 69.1 °F 80% 30.06 in 10.0 mi SE 12.7 mph - N/A   Partly Cloudy
10:58 AM 78.6 °F 68.0 °F 70% 30.07 in 10.0 mi SE 13.8 mph - N/A   Mostly Cloudy
11:58 AM 75.9 °F 68.4 °F 77% 30.08 in 10.0 mi SE 12.7 mph 18.4 mph N/A   Partly Cloudy
12:58 PM 78.6 °F 69.1 °F 72% 30.07 in 10.0 mi SE 15.0 mph 21.9 mph N/A   Partly Cloudy
1:58 PM 77.2 °F 68.7 °F 75% 30.05 in 10.0 mi ESE 13.8 mph 20.7 mph N/A   Scattered Clouds
2:58 PM 79.0 °F 69.4 °F 72% 30.04 in 10.0 mi SE 12.7 mph 21.9 mph N/A   Clear
3:58 PM 78.1 °F 69.4 °F 75% 30.03 in 10.0 mi SE 17.3 mph 24.2 mph N/A   Clear
4:23 PM 77.0 °F 69.8 °F 78% 30.02 in 10.0 mi SE 15.0 mph 25.3 mph N/A   Mostly Cloudy
4:58 PM 76.6 °F 69.4 °F 78% 30.04 in 10.0 mi SE 13.8 mph 21.9 mph N/A   Overcast
5:43 PM 75.2 °F 69.8 °F 83% 30.02 in 10.0 mi SE 13.8 mph 20.7 mph N/A   Scattered Clouds
5:58 PM 75.4 °F 69.3 °F 81% 30.03 in 10.0 mi ESE 12.7 mph 21.9 mph N/A   Scattered Clouds
6:58 PM 73.9 °F 68.5 °F 83% 30.05 in 10.0 mi ESE 10.4 mph - N/A   Mostly Cloudy
7:58 PM 72.9 °F 68.5 °F 86% 30.05 in 10.0 mi ESE 9.2 mph 17.3 mph N/A   Mostly Cloudy
8:58 PM 72.7 °F 69.1 °F 88% 30.07 in 10.0 mi ESE 11.5 mph 19.6 mph N/A   Overcast
9:58 PM 72.0 °F 68.9 °F 90% 30.07 in 10.0 mi ESE 13.8 mph 19.6 mph N/A   Partly Cloudy
10:58 PM 71.4 °F 68.7 °F 91% 30.04 in 10.0 mi ESE 10.4 mph 21.9 mph N/A   Scattered Clouds
11:48 PM 71.6 °F 68.0 °F 88% 30.02 in 10.0 mi ESE 10.4 mph 23.0 mph N/A   Mostly Cloudy
11:58 PM 71.1 °F 68.7 °F 92% 30.03 in 10.0 mi ESE 11.5 mph 17.3 mph N/A   Mostly Cloudy